User: anonymous
Location: Meriden
(44.0740°N, 93.3870°W)
Time: 03:06:20
(UTC-05:00)
Language:

Hamsat - Orbit

View from above orbital plane
View from above orbital plane
View from above satellite
View from above satellite

Ground track
Ground track

The orbit data is extracted from the following two-line orbital elements,

1 28650U 05017B   14106.85269412  .00002887  00000-0  34058-3 0  7113
2 28650 097.5608 114.8939 0025028 004.4781 355.6654 14.85243998484120
Epoch (UTC): 16 April 2014 20:27:52
Eccentricity: 0.0025028
inclination: 97.5608°
perigee height: 595 km
apogee height: 630 km
right ascension of ascending node: 114.8939°
argument of perigee: 4.4781°
revolutions per day: 14.85243998
mean anomaly at epoch: 355.6654°
orbit number at epoch: 48412

The dashed part of the orbit path shows where the satellite is in the earth's shadow,  

DLR